THOR 5

Last updated on Wed Sep 09 2026 00:02:58 GMT+0000 (Coordinated Universal Time)

1 32487U 08006A 26251.37366619 -.00000030 00000+0 00000+0 0 9997 2 32487 0.0331 238.9366 0002297 291.5946 310.6687 1.00271680 68152
UTC large
Height (km)
Speed (km/s)
/
Latitude / Longitude
Inclination (degrees)
Orbital Period (minutes)
Azimuth
Elevation
Range (km)
Doppler Factor

Next 0 passes for location: London (51.5072 / 0.1276)

No passes found over London.
THOR 5